Content
SEND FEEDBACK

Daily
Averages
Monthly
Summary
United Kingdom

INVERNESS, SCOTLAND


Home > Europe > United Kingdom > Scotland
Elevation: 30 feet     Latitude: 57 32N     Longitude: 004 03W

WEATHER
 
SELECT A DAY
Number of Records: 231,195;   Date Range: 7/1/96 - 9/14/14
 
SHARE

PRINT THIS DATA

[ ← Previous Day ]
WEATHER ALMANAC - OCTOBER 12, 2013
[ Next Day → ]
[ °C ]   °F
Weather ElementAverageHighLow
Temperature43.6 °F53.6 °F (12:20 pm)30.2 °F (12:50 am)
Dewpoint40.5 °F46.4 °F (12:50 pm)30.2 °F (12:50 am)
Humidity89.5 %100 % (12:50 am)72 % (12:20 pm)
Barometer30.46 in30.54 in (12:50 am)30.36 in (11:20 pm)
Wind Speed3.7 mph13.8 mph (3:50 pm)
Weather ElementAverage
Visibility5.7 mi
Wind DirectionNNE (34.1 °)

Weather ElementTotal
Precipitation---
Heating Degree Days23.1 (Base 65)
Averaged from 46 records on October 12, 2013
WEATHER CONDITIONS BREAKOUT
WIND DIRECTION BREAKOUT
WEATHER BY HOUR - OCTOBER 12, 2013
[ °C ]   °F
Local TimeTemperatureDewpointHumidityBarometerVisibilityWind DirectionWind SpeedGust SpeedPrecipitationEventsConditions
12:50 AM30.2 °F30.2 °F100 %30.54 in6.2 miCalmMostly Cloudy
1:20 AM32.0 °F32.0 °F100 %30.54 in6.2 miCalmMostly Cloudy
1:50 AM33.8 °F33.8 °F100 %30.54 in6.2 miCalmMostly Cloudy
2:20 AM33.8 °F33.8 °F100 %30.54 in6.2 miCalmMostly Cloudy
2:50 AM33.8 °F33.8 °F100 %30.51 in6.2 miSW (220°)2.3 mphScattered Clouds
3:50 AM35.6 °F35.6 °F100 %30.51 in6.2 miVariable2.3 mphScattered Clouds
4:20 AM37.4 °F37.4 °F100 %30.51 in6.2 miCalmScattered Clouds
4:50 AM37.4 °F37.4 °F100 %30.51 in6.2 miCalmScattered Clouds
5:20 AM35.6 °F35.6 °F100 %30.51 in6.2 miCalmPartly Cloudy
5:50 AM37.4 °F35.6 °F93 %30.51 in6.2 miCalmScattered Clouds
6:20 AM39.2 °F37.4 °F93 %30.51 in6.2 miVariable2.3 mphScattered Clouds
6:50 AM37.4 °F37.4 °F100 %30.51 in6.2 miCalmScattered Clouds
7:20 AM37.4 °F37.4 °F100 %30.51 in6.2 miSW (230°)2.3 mphMostly Cloudy
7:50 AM37.4 °F37.4 °F100 %30.51 in6.2 miCalmMostly Cloudy
8:20 AM39.2 °F39.2 °F100 %30.51 in6.2 miCalmScattered Clouds
8:50 AM41.0 °F39.2 °F93 %30.51 in6.2 miCalmMostly Cloudy
9:20 AM41.0 °F41.0 °F100 %30.51 in6.2 miSW (220°)2.3 mphMostly Cloudy
9:50 AM42.8 °F41.0 °F93 %30.51 in6.2 miCalmMostly Cloudy
10:20 AM44.6 °F42.8 °F93 %30.51 in6.2 miCalmMostly Cloudy
10:50 AM48.2 °F44.6 °F87 %30.51 in6.2 miCalmMostly Cloudy
11:20 AM50.0 °F44.6 °F82 %30.48 in6.2 miCalmMostly Cloudy
11:50 AM51.8 °F44.6 °F76 %30.48 in6.2 miNE (40°)4.6 mphMostly Cloudy
12:20 PM53.6 °F44.6 °F72 %30.48 in6.2 miENE (60°)8.1 mphScattered Clouds
12:50 PM53.6 °F46.4 °F77 %30.48 in6.2 miNE (50°)8.1 mphScattered Clouds
1:20 PM53.6 °F46.4 °F77 %30.45 in6.2 miNE (50°)8.1 mphPartly Cloudy
1:50 PM53.6 °F44.6 °F72 %30.45 in6.2 miNNE (30°)8.1 mphPartly Cloudy
2:20 PM53.6 °F44.6 °F72 %30.45 in6.2 miNE (40°)9.2 mphPartly Cloudy
2:50 PM53.6 °F44.6 °F72 %30.42 in6.2 miNE (40°)11.5 mphPartly Cloudy
3:20 PM53.6 °F46.4 °F77 %30.42 in6.2 miNE (40°)12.7 mphPartly Cloudy
3:50 PM53.6 °F46.4 °F77 %30.42 in6.2 miNE (50°)13.8 mphPartly Cloudy
4:20 PM53.6 °F46.4 °F77 %30.42 in6.2 miNE (40°)12.7 mphPartly Cloudy
4:50 PM53.6 °F46.4 °F77 %30.42 in6.2 miNE (50°)12.7 mphPartly Cloudy
5:20 PM51.8 °F46.4 °F82 %30.39 in6.2 miNE (40°)11.5 mphPartly Cloudy
5:50 PM51.8 °F46.4 °F82 %30.39 in6.2 miNE (50°)11.5 mphPartly Cloudy
6:20 PM50.0 °F46.4 °F87 %30.39 in6.2 miNE (50°)12.7 mphPartly Cloudy
6:50 PM50.0 °F46.4 °F87 %30.39 in6.2 miENE (60°)6.9 mphPartly Cloudy
7:20 PM48.2 °F44.6 °F87 %30.39 in6.2 miEast (100°)3.5 mphPartly Cloudy
7:50 PM46.4 °F42.8 °F87 %30.39 in6.2 miVariable2.3 mphPartly Cloudy
8:20 PM44.6 °F42.8 °F93 %30.39 in6.2 miESE (110°)2.3 mph
8:50 PM41.0 °F39.2 °F93 %30.39 inCalmHaze
9:20 PM41.0 °F39.2 °F93 %30.39 in5.6 miCalm
9:50 PM37.4 °F35.6 °F93 %30.39 in1.9 miCalmMist
10:20 PM37.4 °F35.6 °F93 %30.39 in0.9 miCalmMist
10:50 PM37.4 °F35.6 °F93 %30.39 in0.4 miCalmFogFog
11:20 PM37.4 °F35.6 °F93 %30.36 in2.8 miCalmMostly Cloudy
11:50 PM37.4 °F35.6 °F93 %30.36 in5.0 miCalmScattered Clouds
Hourly data recorded from EGPE, located miles away from Inverness, Scotland







STORIES FROM OUR PARTNERS